User: anonymous
Location: Broad Creek
(39.7000°N, 76.2570°W)
Time: 04:07:02
(UTC-04:00)
Language:

ETS-7 - Orbit

View from above orbital plane
View from above orbital plane
View from above satellite
View from above satellite

Ground track
Ground track

The orbit data is extracted from the following two-line orbital elements,

1 25064U 97074B   14106.87261463  .00021535  00000-0  41645-3 0  1365
2 25064 034.9650 309.0283 0003237 214.4934 265.3605 15.46803954911668
Epoch (UTC): 16 April 2014 20:56:33
Eccentricity: 0.0003237
inclination: 34.9650°
perigee height: 424 km
apogee height: 428 km
right ascension of ascending node: 309.0283°
argument of perigee: 214.4934°
revolutions per day: 15.46803954
mean anomaly at epoch: 265.3605°
orbit number at epoch: 91166

The dashed part of the orbit path shows where the satellite is in the earth's shadow,  

DLR